Theta_e
309 308 308 307 307 305 306 305 298 308 312 299 301 294 294 295 297 299 298 298 296 292 292 289 288 289 292 299 296 288 292 287 285 290 296 299 295 292 291 285 285 288 286 284
309 308 308 307 306 305 305 300 301 308 308 292 294 297 295 295 296 296 296 295 296 297 290 286 291 293 298 298 294 287 290 287 283 287 292 295 292 294 294 294 293 286 282 283
310 308 307 307 306 305 305 300 296 302 303 301 295 294 294 293 298 296 298 297 298 294 292 293 289 291 295 297 296 299 296 288 286 284 289 290 289 291 293 291 286 287 285 287
310 308 307 307 306 305 306 301 297 297 293 296 295 296 294 292 292 296 298 296 296 294 287 289 290 294 294 295 297 295 291 287 289 291 293 294 291 292 291 290 291 285 288 290
311 307 306 307 306 304 307 298 296 300 296 297 295 292 294 292 293 294 295 295 297 296 291 292 289 292 292 289 293 291 293 287 291 289 295 294 291 292 292 292 292 292 291 291
312 307 305 306 306 305 302 305 304 299 296 295 293 293 293 292 295 297 299 298 295 293 298 298 300 301 299 294 290 289 288 289 289 288 294 293 288 289 290 291 293 287 289 294
312 307 304 305 305 304 303 304 302 296 292 294 293 293 294 294 295 294 298 300 297 301 305 304 304 302 300 296 293 293 288 289 292 290 293 283 290 293 291 287 292 291 296 296
312 308 305 305 305 304 304 307 302 298 292 294 294 293 293 296 299 299 299 301 304 306 300 296 294 293 293 292 296 293 292 289 290 289 290 290 291 289 286 284 286 293 291 301
313 309 306 305 305 304 302 302 307 301 293 296 295 293 295 294 295 298 300 305 307 305 297 294 285 284 286 286 289 295 295 296 290 289 285 282 287 287 290 288 289 291 293 302
313 311 308 305 304 304 303 304 307 300 293 297 297 294 294 296 297 296 300 301 301 300 294 289 286 286 290 284 284 283 287 288 287 288 286 288 287 287 294 286 284 292 298 301
312 313 309 305 305 305 302 299 305 300 296 297 298 299 296 297 298 294 301 299 300 294 290 290 289 288 290 287 286 283 282 281 283 285 285 283 290 288 284 289 292 295 297 297
311 312 310 306 305 305 304 296 304 305 297 296 302 302 303 302 301 299 298 297 298 296 291 292 291 287 289 288 283 290 285 285 282 284 285 289 289 287 290 297 292 295 295 296
311 312 310 307 305 305 304 299 300 300 295 296 300 301 306 308 306 307 296 302 304 302 302 295 294 287 288 286 287 286 288 289 285 285 287 287 288 289 294 297 295 295 296 295
310 311 309 306 305 305 304 299 301 300 297 289 298 306 303 307 308 307 306 305 305 302 303 296 292 289 293 288 289 286 288 288 285 286 287 286 289 288 292 295 296 296 296 296
310 311 308 305 303 304 304 302 302 303 296 292 295 303 307 308 308 307 307 305 300 299 297 293 293 296 292 291 289 288 288 285 284 285 285 285 285 287 295 294 294 297 295 293
311 311 307 304 304 303 299 293 302 302 300 292 290 304 303 305 307 308 307 306 302 301 296 295 300 297 293 288 287 287 288 289 288 286 286 285 288 292 295 293 293 294 294 294
310 308 305 304 304 302 294 293 301 302 301 294 292 296 304 305 306 308 305 306 303 301 297 296 298 295 294 290 287 287 290 290 289 291 289 286 290 290 293 293 293 294 293 294
308 305 303 304 302 301 296 300 302 303 297 297 292 293 299 306 304 304 309 304 301 300 298 299 296 297 294 287 290 290 291 290 291 290 292 292 293 293 293 294 293 291 290 291
304 303 303 301 298 295 298 304 304 303 298 292 295 293 294 305 303 306 305 305 297 303 296 298 296 297 290 291 291 290 291 290 290 291 292 292 291 291 292 292 291 289 289 290
303 300 295 292 299 305 305 299 293 294 295 295 291 299 295 301 303 302 303 301 299 293 297 300 295 296 296 294 295 293 292 292 291 291 290 290 289 290 290 291 291 291 290 290
297 293 295 305 306 303 299 293 290 291 290 296 297 299 296 303 297 298 304 299 296 290 294 294 294 294 295 296 294 294 294 294 293 293 293 293 292 290 290 290 290 290 290 290
297 298 301 300 299 296 292 291 295 294 292 298 297 299 300 303 306 300 301 297 297 289 301 293 291 296 296 294 293 294 294 294 293 293 293 293 292 292 290 290 290 290 291 292
301 296 293 293 292 287 286 287 291 291 298 300 301 300 303 304 303 300 299 293 293 302 293 293 297 297 295 295 294 293 295 295 294 293 293 293 292 293 292 290 291 292 292 291
292 289 285 289 289 292 294 295 293 298 301 303 303 301 300 303 298 300 292 298 300 290 288 291 298 298 296 296 296 294 293 294 294 293 293 293 292 291 292 293 293 293 292 292
289 289 286 289 296 299 299 298 297 300 303 303 300 302 301 299 295 298 295 292 289 293 294 298 300 299 299 296 296 295 295 295 294 295 294 294 294 293 294 295 295 295 294 294
289 289 288 296 294 294 294 294 297 301 303 305 302 298 295 294 297 292 290 290 289 297 301 302 301 299 299 299 299 298 298 297 297 296 295 295 295 295 294 295 295 295 294 293
288 289 295 296 295 294 296 298 299 305 302 298 300 293 292 299 294 292 297 295 300 303 303 304 302 301 300 301 300 299 299 298 296 296 296 295 295 295 294 292 293 295 295 294
Wind_Speed
16 18 21 23 26 32 9 6 4 9 10 2 2 5 7 5 8 5 9 9 11 11 16 7 8 10 8 13 10 7 7 4 7 18 12 16 12 13 16 8 13 12 15 15
15 17 18 21 22 21 9 8 4 5 10 6 7 7 5 4 10 9 5 7 7 17 8 9 9 16 10 12 10 4 2 5 6 6 8 9 7 12 15 17 11 13 7 7
12 15 17 19 22 21 7 6 6 2 3 2 7 9 5 9 8 12 8 14 14 13 20 13 11 21 9 21 19 18 7 5 8 11 19 3 6 7 14 14 10 10 11 16
12 13 16 18 21 22 5 5 5 4 7 3 10 8 5 13 11 5 9 8 14 21 9 21 9 25 24 11 4 5 3 6 8 16 21 11 10 11 7 16 16 8 7 15
9 9 13 15 18 24 2 8 6 2 10 8 12 3 8 11 13 7 10 12 23 21 18 14 26 25 18 4 6 5 3 5 12 15 8 3 5 6 7 11 13 13 14 19
8 5 9 12 13 14 2 2 1 5 5 7 8 7 10 12 15 11 14 18 21 21 22 27 27 18 10 6 5 6 4 5 6 6 8 2 6 7 10 6 7 5 8 11
9 6 4 7 7 7 3 3 4 5 8 9 9 13 16 18 16 17 21 19 16 19 27 27 12 6 5 6 6 3 8 9 6 7 9 2 4 9 7 8 6 10 11 18
10 8 6 4 5 3 4 2 2 3 7 10 11 10 14 15 15 13 15 14 17 18 20 11 8 2 3 1 5 7 9 5 7 6 9 2 2 9 8 7 3 14 19 2
11 11 9 7 6 4 6 2 2 3 6 2 8 10 12 11 12 12 11 15 12 13 9 9 7 5 7 5 16 7 10 7 5 7 6 6 6 20 20 4 3 18 17 8
13 13 12 10 8 5 4 2 5 3 6 5 5 7 9 7 7 8 13 16 6 8 9 8 6 5 7 6 10 11 10 8 8 9 4 3 11 25 19 3 6 21 14 5
13 14 14 11 9 6 5 2 5 5 6 12 11 8 12 10 9 7 12 10 5 3 7 5 6 5 6 5 3 7 5 7 5 6 5 4 23 15 8 9 11 10 9 12
14 14 15 13 10 9 6 3 5 5 5 9 16 20 21 20 18 11 5 5 7 2 3 4 4 4 4 7 5 2 2 5 6 5 5 9 13 12 16 8 3 5 8 10
15 13 15 14 12 11 9 3 4 4 5 8 8 5 7 9 15 13 5 2 4 3 4 3 3 4 3 4 4 7 3 4 4 9 4 13 11 14 18 11 10 11 12 13
15 13 15 15 12 9 9 5 4 4 5 5 4 2 8 6 9 13 17 14 8 7 5 3 4 3 2 4 6 4 5 9 8 4 6 14 6 16 15 11 11 15 15 15
15 11 15 14 12 10 6 5 5 8 4 5 9 19 1 5 8 12 12 13 7 5 3 4 3 2 3 4 3 0 3 4 6 4 7 5 9 15 11 11 9 10 18 19
13 13 16 15 12 8 2 3 5 7 5 4 6 7 7 4 6 7 8 7 6 6 2 6 1 3 5 4 3 2 1 2 4 4 6 4 10 11 9 11 12 12 15 17
6 16 15 12 12 5 4 1 3 8 5 3 6 5 3 3 6 4 4 5 3 4 3 4 4 1 4 3 3 3 4 4 5 5 3 3 8 6 9 14 14 15 16 17
14 14 11 9 6 4 6 6 10 9 3 3 5 6 5 4 4 4 3 3 3 5 4 3 4 2 2 3 2 2 2 1 4 6 5 5 7 10 10 12 12 16 15 15
16 12 8 3 4 4 2 2 14 7 2 3 5 4 3 2 4 1 2 2 4 2 4 2 3 1 1 2 6 0 1 2 3 4 5 8 9 10 10 13 14 16 13 13
15 3 3 4 5 8 15 3 4 4 4 5 5 6 7 5 3 2 2 2 2 3 1 0 4 2 2 4 3 4 3 2 2 0 4 5 6 9 10 11 11 12 12 12
1 4 4 2 10 4 3 4 5 5 5 6 6 10 8 6 6 5 0 1 2 2 1 4 2 2 2 6 5 6 4 3 3 5 6 7 7 7 9 10 10 12 12 11
3 1 2 2 4 4 5 5 5 7 5 7 6 6 7 3 3 4 4 2 1 3 1 3 2 3 6 5 4 7 5 7 8 6 8 9 9 9 9 9 10 10 11 12
2 1 3 4 3 6 6 8 5 4 5 5 7 7 5 5 5 4 3 5 4 2 3 3 2 7 7 6 6 6 8 6 11 10 9 11 10 9 10 10 10 10 11 11
3 4 5 6 6 7 8 6 3 6 4 4 6 5 5 2 5 2 5 2 2 2 3 2 5 9 12 7 10 8 8 9 11 10 9 10 11 9 10 10 11 11 12 11
4 4 7 9 8 3 1 2 6 7 4 4 4 3 4 4 3 3 2 4 5 2 2 4 7 11 12 11 10 10 10 9 10 10 10 12 12 10 11 11 11 11 11 11
3 6 6 7 4 6 5 7 8 7 6 3 5 3 4 4 3 4 6 3 2 1 3 5 10 12 12 12 11 10 10 8 10 10 10 9 10 11 11 11 11 12 11 11
5 7 8 9 2 5 6 7 7 6 8 8 4 6 4 3 4 4 3 2 2 2 4 4 10 13 13 13 12 12 13 12 10 10 11 10 10 11 10 11 10 10 10 10
Wind_Direction
339 341 343 344 347 342 330 312 302 13 332 312 3 359 334 341 298 303 287 285 292 318 324 279 279 255 283 313 327 277 260 277 259 263 254 258 232 221 227 235 226 239 268 268
336 338 340 343 347 1 317 331 306 45 314 15 348 342 295 257 307 326 299 287 296 311 303 298 251 292 280 323 315 262 179 229 279 247 211 224 239 225 231 236 259 267 276 280
330 334 339 343 342 352 304 311 323 53 68 71 336 340 312 323 320 300 271 285 298 289 311 300 283 288 300 319 304 290 207 246 243 274 305 349 245 225 220 230 252 263 262 296
323 334 339 344 342 339 297 5 44 14 317 340 332 304 288 320 339 277 299 284 308 334 304 301 275 314 314 315 321 305 234 263 243 251 272 265 242 263 191 240 242 251 290 255
306 327 336 342 345 327 353 332 339 282 287 294 305 93 322 312 329 306 298 302 322 320 303 304 316 313 312 291 314 301 271 276 302 289 283 207 224 198 208 236 262 262 261 269
288 300 331 340 353 331 351 44 190 290 301 314 300 357 323 307 314 293 276 298 316 310 312 320 302 290 285 241 281 317 287 304 301 295 330 302 121 11 308 327 299 282 265 268
281 250 299 325 354 359 310 40 286 283 297 308 320 310 309 305 309 288 294 304 315 317 322 301 271 224 208 205 192 349 307 310 278 285 303 310 102 44 344 315 287 305 282 250
290 224 239 273 312 302 290 136 234 293 285 303 288 318 309 307 306 294 299 315 326 324 309 322 329 300 60 337 316 332 316 292 298 317 331 344 38 23 341 329 294 350 355 312
281 220 217 216 246 242 280 238 245 274 308 324 329 308 299 301 315 308 326 332 338 331 309 360 336 347 336 336 326 355 318 266 246 329 320 354 17 328 327 186 354 347 326 138
280 223 218 209 236 225 247 300 227 265 267 280 291 282 320 295 294 289 296 346 331 359 325 346 349 323 2 345 326 340 338 355 350 340 332 98 4 328 313 337 334 315 348 324
275 238 215 204 225 214 212 297 203 245 266 288 264 249 269 275 256 281 330 318 35 308 342 347 355 308 359 299 279 335 323 328 1 325 332 353 359 344 3 310 294 313 25 85
274 248 211 200 204 218 195 254 182 227 246 276 307 278 269 260 264 294 304 289 322 327 312 360 304 306 311 317 322 344 340 8 316 332 341 340 322 305 299 335 98 38 67 81
278 250 206 196 197 205 203 236 280 225 268 274 247 253 223 222 234 232 246 223 318 299 350 314 283 293 333 322 20 299 133 35 277 318 65 334 320 333 343 69 70 73 74 86
280 246 194 188 191 202 211 216 240 248 294 283 287 203 245 276 223 217 224 268 304 309 282 278 308 296 198 315 317 295 14 308 327 261 345 325 337 346 342 73 81 86 78 84
287 225 182 175 185 212 220 235 238 246 262 302 302 301 326 157 203 226 229 238 260 279 277 269 301 312 289 246 276 176 5 352 337 351 330 298 298 322 2 63 65 83 101 80
295 186 169 179 192 163 197 252 193 212 199 278 290 359 278 212 226 236 216 213 223 247 291 275 323 87 282 306 308 73 292 270 264 287 304 282 295 339 39 67 65 62 85 93
264 166 166 187 175 167 209 305 56 163 147 247 273 272 168 252 250 202 210 184 234 263 267 253 304 150 252 298 283 75 326 351 314 324 311 308 7 24 52 73 71 73 75 77
154 150 156 159 176 261 267 230 195 163 202 242 271 277 263 156 237 209 210 213 213 205 269 243 265 128 234 256 323 316 291 313 26 10 24 67 53 58 68 84 87 75 78 83
137 138 137 153 203 217 229 137 174 179 278 268 238 262 311 166 249 294 183 188 241 83 266 253 279 341 229 277 314 346 340 9 48 37 36 73 77 74 80 92 91 91 86 88
136 129 182 226 211 147 132 155 141 183 216 224 252 266 254 305 264 232 147 231 293 265 44 244 252 263 51 163 82 88 113 126 129 22 80 66 79 82 78 78 94 96 96 99
155 203 240 58 136 172 196 194 191 184 228 212 230 237 231 195 262 327 72 322 213 264 158 289 242 274 102 127 122 133 134 145 77 90 91 89 93 98 99 96 94 100 99 101
176 253 305 246 207 202 221 201 198 215 243 182 213 206 210 212 232 256 176 272 198 261 270 270 267 72 111 124 134 150 137 123 116 116 116 106 100 106 108 109 109 107 105 113
162 220 255 232 189 218 214 199 188 221 201 191 186 185 202 177 222 242 254 240 203 176 242 247 345 118 130 125 125 118 135 121 102 108 103 110 106 107 116 115 111 113 114 120
185 199 224 226 194 230 205 213 168 232 258 191 199 170 215 170 197 251 252 76 224 232 235 285 86 150 137 143 134 152 135 126 116 114 116 117 117 116 115 117 125 124 122 125
198 222 231 218 248 288 292 237 257 254 249 185 205 214 234 178 233 207 309 230 241 261 20 20 105 144 148 148 141 138 133 123 113 120 123 124 128 129 130 133 134 133 141 148
233 227 249 239 258 253 239 252 246 219 219 222 243 188 202 190 233 207 221 267 268 46 22 72 138 149 154 155 158 152 139 131 133 130 130 132 140 139 135 141 142 148 152 149
223 231 227 260 286 252 242 269 254 204 218 213 219 201 164 115 217 223 205 256 32 26 85 117 151 159 160 162 160 155 150 148 144 136 141 138 141 137 148 148 151 153 156 152